• In Kazakhstan
  • List of Countries
  • For 7 days
  • Water Temperature
  • Weather Map
  • News
  • Weather Widgets
  • user-avatar
    Login

    Hourly Weather Kitzbuhel

    Today, 17 February, Monday

    Time Temperature Precipitation Wind Pressure Humidity
    00:00 +6°C° 0 mm 2 mps 679 mmHg 54%
    01:00 +6°C° 0 mm 2 mps 679 mmHg 55%
    02:00 +5°C° 0 mm 2 mps 679 mmHg 55%
    03:00 +6°C° 0 mm 1 mps 679 mmHg 55%
    04:00 +6°C° 0 mm 1 mps 678 mmHg 55%
    05:00 +6°C° 0 mm 1 mps 679 mmHg 56%
    06:00 +5°C° 0 mm 1 mps 679 mmHg 57%
    07:00 +5°C° 0 mm 1 mps 679 mmHg 58%
    08:00 +6°C° 0 mm 1 mps 679 mmHg 61%
    09:00 +7°C° 0 mm 1 mps 679 mmHg 64%
    10:00 +8°C° 0 mm 1 mps 679 mmHg 66%
    11:00 +9°C° 0 mm 1 mps 679 mmHg 68%
    12:00 +9°C° 0 mm 1 mps 679 mmHg 70%
    13:00 +9°C° 0 mm 0 mps 678 mmHg 71%
    14:00 +9°C° 0 mm 0 mps 678 mmHg 75%
    15:00 +8°C° 0 mm 0 mps 678 mmHg 78%
    16:00 +8°C° 0 mm 0 mps 678 mmHg 81%
    17:00 +7°C° 0 mm 0 mps 678 mmHg 84%
    18:00 +7°C° 0 mm 1 mps 678 mmHg 86%
    19:00 +6°C° 0 mm 1 mps 679 mmHg 88%
    20:00 +6°C° 0.3 mm 1 mps 679 mmHg 91%
    21:00 +6°C° 0.3 mm 1 mps 679 mmHg 93%
    22:00 +5°C° 0.3 mm 1 mps 679 mmHg 96%
    23:00 +5°C° 1.2 mm 1 mps 679 mmHg 96%

    Tomorrow, 18 February, Tuesday

    Time Temperature Precipitation Wind Pressure Humidity
    00:00 +4°C° 1.2 mm 1 mps 679 mmHg 97%
    01:00 +4°C° 1.2 mm 1 mps 680 mmHg 98%
    02:00 +4°C° 1.2 mm 1 mps 680 mmHg 97%
    03:00 +3°C° 1.2 mm 1 mps 680 mmHg 97%
    04:00 +3°C° 1.2 mm 1 mps 680 mmHg 97%
    05:00 +3°C° 0.4 mm 1 mps 680 mmHg 96%
    06:00 +3°C° 0.4 mm 1 mps 681 mmHg 96%
    07:00 +2°C° 0.4 mm 1 mps 681 mmHg 95%
    08:00 +3°C° 0.1 mm 1 mps 681 mmHg 92%
    09:00 +3°C° 0.1 mm 1 mps 682 mmHg 90%
    10:00 +4°C° 0.1 mm 1 mps 682 mmHg 87%
    11:00 +4°C° 0.1 mm 1 mps 682 mmHg 85%
    12:00 +4°C° 0.1 mm 1 mps 682 mmHg 84%
    13:00 +5°C° 0.1 mm 1 mps 682 mmHg 82%
    14:00 +5°C° 0.1 mm 1 mps 682 mmHg 81%
    15:00 +4°C° 0.1 mm 1 mps 681 mmHg 81%
    16:00 +4°C° 0.1 mm 1 mps 681 mmHg 80%
    17:00 +3°C° 0 mm 1 mps 681 mmHg 84%
    18:00 +1°C° 0 mm 0 mps 681 mmHg 87%
    19:00 0°C° 0 mm 0 mps 681 mmHg 91%
    20:00 0°C° 0 mm 0 mps 681 mmHg 91%
    21:00 0°C° 0 mm 0 mps 681 mmHg 92%
    22:00 0°C° 0 mm 0 mps 681 mmHg 93%
    23:00 0°C° 0 mm 0 mps 681 mmHg 93%

    Day after tomorrow, 19 February, Wednesday

    Time Temperature Precipitation Wind Pressure Humidity
    00:00 0°C° 0 mm 0 mps 681 mmHg 94%
    01:00 0°C° 0 mm 0 mps 680 mmHg 94%
    02:00 -1°C° 0 mm 0 mps 680 mmHg 94%
    03:00 -1°C° 0 mm 0 mps 679 mmHg 94%
    04:00 -1°C° 0 mm 0 mps 679 mmHg 94%
    05:00 -1°C° 0 mm 0 mps 679 mmHg 93%
    06:00 0°C° 0 mm 1 mps 678 mmHg 92%
    07:00 0°C° 0 mm 1 mps 678 mmHg 92%
    08:00 +1°C° 0 mm 1 mps 678 mmHg 86%
    09:00 +2°C° 0 mm 1 mps 678 mmHg 79%
    10:00 +3°C° 0 mm 1 mps 678 mmHg 73%
    11:00 +4°C° 0 mm 1 mps 678 mmHg 70%
    12:00 +4°C° 0 mm 1 mps 677 mmHg 66%
    13:00 +5°C° 0 mm 1 mps 677 mmHg 63%
    14:00 +4°C° 0.6 mm 1 mps 677 mmHg 72%
    15:00 +2°C° 0.6 mm 2 mps 676 mmHg 82%
    16:00 +1°C° 0.6 mm 2 mps 676 mmHg 91%
    17:00 +1°C° 1.2 mm 1 mps 677 mmHg 93%
    18:00 0°C° 1.2 mm 1 mps 677 mmHg 94%
    19:00 -1°C° 1.2 mm 1 mps 678 mmHg 96%
    20:00 -1°C° 0.9 mm 1 mps 678 mmHg 95%
    21:00 -1°C° 0.9 mm 1 mps 679 mmHg 95%
    22:00 -1°C° 0.9 mm 1 mps 679 mmHg 94%
    23:00 -2°C° 0.3 mm 1 mps 679 mmHg 94%

    20 February, Thursday

    Time Temperature Precipitation Wind Pressure Humidity
    00:00 -2°C° 0.3 mm 1 mps 679 mmHg 94%
    01:00 -2°C° 0.3 mm 1 mps 679 mmHg 94%
    02:00 -3°C° 0.1 mm 1 mps 679 mmHg 93%
    03:00 -3°C° 0.1 mm 1 mps 679 mmHg 91%
    04:00 -4°C° 0.1 mm 1 mps 679 mmHg 90%
    05:00 -4°C° 0 mm 1 mps 678 mmHg 87%
    06:00 -4°C° 0 mm 1 mps 678 mmHg 84%
    07:00 -4°C° 0 mm 1 mps 678 mmHg 81%
    08:00 -2°C° 0 mm 1 mps 679 mmHg 76%
    09:00 0°C° 0 mm 1 mps 679 mmHg 71%
    10:00 +1°C° 0 mm 0 mps 679 mmHg 67%
    11:00 +2°C° 0 mm 0 mps 679 mmHg 66%
    12:00 +3°C° 0 mm 0 mps 679 mmHg 66%
    13:00 +4°C° 0 mm 0 mps 678 mmHg 65%
    14:00 +4°C° 0 mm 0 mps 678 mmHg 68%
    15:00 +4°C° 0 mm 0 mps 678 mmHg 71%
    16:00 +4°C° 0 mm 0 mps 677 mmHg 74%
    17:00 +4°C° 0 mm 1 mps 677 mmHg 75%
    18:00 +3°C° 0 mm 1 mps 677 mmHg 76%
    19:00 -1°C° 0 mm 2 mps 677 mmHg 77%
    20:00 -1°C° 0 mm 2 mps 678 mmHg 76%
    21:00 -1°C° 0 mm 2 mps 678 mmHg 74%
    22:00 -1°C° 0 mm 2 mps 678 mmHg 72%
    23:00 +1°C° 0 mm 1 mps 678 mmHg 72%

    21 February, Friday

    Time Temperature Precipitation Wind Pressure Humidity
    00:00 +1°C° 0 mm 1 mps 678 mmHg 71%
    01:00 +1°C° 0 mm 1 mps 679 mmHg 71%
    02:00 +1°C° 0 mm 1 mps 679 mmHg 73%
    03:00 +1°C° 0 mm 1 mps 679 mmHg 74%
    04:00 0°C° 0 mm 1 mps 679 mmHg 76%
    05:00 0°C° 0 mm 1 mps 679 mmHg 77%
    06:00 +1°C° 0 mm 1 mps 680 mmHg 79%
    07:00 +1°C° 0 mm 1 mps 680 mmHg 80%
    14:00 +1°C° 0.1 mm 2 mps 681 mmHg 84%
    15:00 +3°C° 0 mm 1 mps 683 mmHg 86%
    16:00 +2°C° 0 mm 0 mps 683 mmHg 84%
    17:00 +1°C° 0 mm 0 mps 683 mmHg 86%
    18:00 0°C° 0 mm 0 mps 683 mmHg 88%
    19:00 -1°C° 0 mm 1 mps 683 mmHg 90%
    20:00 -1°C° 0 mm 1 mps 684 mmHg 87%
    21:00 -1°C° 0 mm 1 mps 684 mmHg 84%
    22:00 -1°C° 0 mm 1 mps 684 mmHg 81%
    23:00 -1°C° 0 mm 1 mps 684 mmHg 77%

    22 February, Saturday

    Time Temperature Precipitation Wind Pressure Humidity
    00:00 -1°C° 0 mm 1 mps 684 mmHg 73%
    01:00 -3°C° 0 mm 2 mps 684 mmHg 70%
    02:00 0°C° 0 mm 1 mps 684 mmHg 67%
    03:00 0°C° 0 mm 1 mps 684 mmHg 64%
    04:00 0°C° 0 mm 1 mps 684 mmHg 61%
    05:00 +1°C° 0 mm 1 mps 683 mmHg 59%
    06:00 +1°C° 0 mm 1 mps 683 mmHg 58%
    07:00 +1°C° 0 mm 1 mps 683 mmHg 56%
    08:00 +3°C° 0 mm 1 mps 684 mmHg 58%
    09:00 +5°C° 0 mm 1 mps 684 mmHg 60%
    10:00 +7°C° 0 mm 1 mps 684 mmHg 62%
    11:00 +8°C° 0 mm 1 mps 684 mmHg 61%
    12:00 +9°C° 0 mm 1 mps 684 mmHg 61%
    13:00 +10°C° 0 mm 1 mps 684 mmHg 61%
    14:00 +9°C° 0 mm 1 mps 683 mmHg 64%
    15:00 +9°C° 0 mm 1 mps 683 mmHg 67%
    16:00 +8°C° 0 mm 1 mps 683 mmHg 70%
    17:00 +8°C° 0 mm 1 mps 683 mmHg 68%
    18:00 +7°C° 0 mm 1 mps 683 mmHg 66%
    19:00 +5°C° 0 mm 2 mps 683 mmHg 64%
    20:00 +5°C° 0 mm 2 mps 683 mmHg 67%
    21:00 +6°C° 0 mm 1 mps 684 mmHg 71%
    22:00 +6°C° 0 mm 1 mps 684 mmHg 74%
    23:00 +6°C° 0.3 mm 1 mps 684 mmHg 80%
    Show more